Terminal Aerodrome Forecast
Issued by NWS El Paso, TX

Home | Current Version | Previous Version | Text Only | Print | Product List | Glossary On
Versions: 1 2 3 4 5 6 7 8 9 10 11 12 13 14 15
000
FTUS44 KEPZ 201128
TAFELP
TAF
KELP 201128Z 2012/2112 24013KT P6SM SCT060 BKN120
     FM201700 24023G33KT P6SM SCT050 BKN100
     FM210000 24022G32KT 6SM -SHRA BKN030 BKN090 OVC150=

USA.gov is the U.S. government's official web portal to all federal, state and local government web resources and services.